Wolf Creek Pass, CO

12:08 PM MDT on June 25, 2017 (GMT -0600)
Wolf Creek Pass

Weather History for KCPW - January, 2014

Change the Weather History Date:

Friday, January 31, 2014

  Actual Average (KALS) Record (KALS)
Temperature  
Mean Temperature 19 °F -  
Max Temperature 21 °F 35 °F 57 °F (1971)
Min Temperature 15 °F 1 °F -39 °F (1979)
Degree Days  
Heating Degree Days 46    
Moisture  
Dew Point 18 °F    
Average Humidity 99    
Maximum Humidity 100    
Minimum Humidity 93    
Precipitation  
Precipitation 0.44 in - - ()
Sea Level Pressure  
Sea Level Pressure 29.65 in    
Wind  
Wind Speed 38 mph (SW)    
Max Wind Speed 52 mph    
Max Gust Speed 72 mph    
Averages and records for this station are not official NWS values.
T = Trace of Precipitation, MM = Missing Value Source: NWS Daily Summary

Daily Weather History Graph

Daily Weather History Graph

Search for Another Location

Airport or City:

Trip Planner

Search our weather history database for the weather conditions in past years. The results will help you decide how hot, cold, wet, or windy it might be!

Date:

Astronomy

Jan. 31, 2014 Rise Set
Actual Time 7:11 AM MST 5:30 PM MST
Civil Twilight 6:43 AM MST 5:58 PM MST
Nautical Twilight 6:12 AM MST 6:29 PM MST
Astronomical Twilight 5:41 AM MST 7:00 PM MST
Moon 7:25 AM MST (1/31) 6:55 PM MST (1/31)
Length of Visible Light 11h 14m
Length of Day
10h 19m
New Moon, 1% of the Moon is Illuminated
Jan 31
New Moon
Feb 6
First Quarter
Feb 14
Full
Feb 22
Last Quarter
Mar 1
New

Hourly Weather History & Observations

Time (MST) Temp. Windchill Dew Point Humidity Pressure Visibility Wind Dir Wind Speed Gust Speed Precip Events Conditions
12:19 AM 21.2 °F 1.7 °F 21.2 °F 100% 29.66 in - SW 35.7 mph - 0.01 in   Overcast
12:39 AM 21.2 °F -0.1 °F 21.2 °F 100% 29.65 in - SW 44.9 mph 70.2 mph 0.01 in   Overcast
12:59 AM 21.2 °F - 21.2 °F 100% 29.64 in - North - - 0.02 in   Overcast
1:19 AM 21.2 °F 0.3 °F 21.2 °F 100% 29.66 in - SW 42.6 mph 65.6 mph 0.01 in   Overcast
1:39 AM 21.2 °F 2.4 °F 21.2 °F 100% 29.65 in - SW 32.2 mph - 0.01 in   Overcast
1:59 AM 21.2 °F - 19.4 °F 93% 29.66 in - North - - 0.02 in   Overcast
2:19 AM 21.2 °F - 21.2 °F 100% 29.66 in - North - - 0.01 in   Overcast
2:39 AM 19.4 °F -1.3 °F 19.4 °F 100% 29.65 in - SSW 38.0 mph 69.0 mph 0.01 in   Overcast
2:59 AM 19.4 °F -2.7 °F 19.4 °F 100% 29.65 in - SW 44.9 mph 63.3 mph 0.01 in   Overcast
3:19 AM 19.4 °F -3.8 °F 19.4 °F 100% 29.65 in - SW 51.8 mph 65.6 mph N/A   Overcast
3:39 AM 19.4 °F -0.8 °F 19.4 °F 100% 29.67 in - SW 35.7 mph 56.4 mph N/A   Overcast
3:59 AM 19.4 °F -2.4 °F 19.4 °F 100% 29.67 in - SW 43.7 mph 72.5 mph N/A   Overcast
4:19 AM 19.4 °F -2.9 °F 19.4 °F 100% 29.66 in - SW 46.0 mph 72.5 mph N/A   Overcast
4:39 AM 19.4 °F -0.3 °F 17.6 °F 93% 29.68 in - SW 33.4 mph 66.7 mph N/A   Overcast
4:59 AM 19.4 °F -0.8 °F 17.6 °F 93% 29.68 in - SW 35.7 mph 72.5 mph N/A   Overcast
5:19 AM 19.4 °F -2.0 °F 17.6 °F 93% 29.66 in - SW 41.4 mph 63.3 mph N/A   Overcast
5:39 AM 19.4 °F -1.8 °F 17.6 °F 93% 29.68 in - SW 40.3 mph 63.3 mph N/A   Overcast
5:59 AM 19.4 °F -3.1 °F 17.6 °F 93% 29.67 in - SW 47.2 mph 63.3 mph N/A   Overcast
6:19 AM 17.6 °F -5.0 °F 17.6 °F 100% 29.68 in - SW 43.7 mph 69.0 mph N/A   Overcast
6:39 AM 17.6 °F -2.5 °F 17.6 °F 100% 29.69 in - SW 32.2 mph 55.2 mph N/A   Overcast
6:59 AM 17.6 °F - 17.6 °F 100% 29.68 in - North - - 0.01 in   Overcast
7:19 AM 17.6 °F -1.6 °F 17.6 °F 100% 29.69 in - SSW 28.8 mph 52.9 mph N/A   Overcast
7:39 AM 17.6 °F -1.0 °F 17.6 °F 100% 29.70 in - SW 26.5 mph 48.3 mph 0.03 in   Overcast
7:59 AM 17.6 °F -1.6 °F 17.6 °F 100% 29.69 in - SW 28.8 mph 54.1 mph 0.05 in   Overcast
8:19 AM 17.6 °F -2.5 °F 17.6 °F 100% 29.69 in - SW 32.2 mph 48.3 mph 0.04 in   Overcast
8:39 AM 17.6 °F -1.0 °F 17.6 °F 100% 29.69 in - SW 26.5 mph 47.2 mph 0.06 in   Overcast
8:59 AM 17.6 °F 1.7 °F 17.6 °F 100% 29.69 in - SW 18.4 mph 36.8 mph 0.11 in   Overcast
9:19 AM 17.6 °F -1.6 °F 17.6 °F 100% 29.68 in - SW 28.8 mph 49.5 mph 0.03 in   Overcast
9:39 AM 17.6 °F -3.3 °F 17.6 °F 100% 29.67 in - SW 35.7 mph 46.0 mph 0.07 in   Overcast
9:59 AM 17.6 °F - 17.6 °F 100% 29.66 in - North - - 0.10 in   Overcast
10:19 AM 17.6 °F -2.5 °F 17.6 °F 100% 29.67 in - SW 32.2 mph 51.8 mph 0.02 in   Overcast
10:39 AM 17.6 °F -1.6 °F 17.6 °F 100% 29.68 in - SW 28.8 mph 49.5 mph 0.06 in   Overcast
10:59 AM 17.6 °F -5.4 °F 17.6 °F 100% 29.67 in - SW 46.0 mph 57.5 mph 0.07 in   Overcast
11:19 AM 17.6 °F -2.8 °F 17.6 °F 100% 29.66 in - SW 33.4 mph 66.7 mph N/A   Overcast
11:39 AM 17.6 °F - 17.6 °F 100% 29.65 in - North - - 0.02 in   Overcast
11:59 AM 17.6 °F -4.1 °F 17.6 °F 100% 29.64 in - SSW 39.1 mph 61.0 mph 0.02 in   Overcast
12:19 PM 17.6 °F -5.0 °F 17.6 °F 100% 29.62 in - SW 43.7 mph 61.0 mph 0.01 in   Overcast
12:39 PM 17.6 °F -3.6 °F 17.6 °F 100% 29.60 in - SW 36.8 mph 61.0 mph 0.01 in   Overcast
12:59 PM 17.6 °F - 17.6 °F 100% 29.56 in - North - - 0.02 in   Overcast
1:19 PM 17.6 °F -4.1 °F 17.6 °F 100% 29.57 in - SW 39.1 mph 58.7 mph N/A   Overcast
1:39 PM 17.6 °F -5.2 °F 17.6 °F 100% 29.56 in - SW 44.9 mph 66.7 mph N/A   Overcast
1:51 PM 17.6 °F -3.1 °F 17.6 °F 100% 29.56 in - SW 34.5 mph 66.7 mph N/A   Overcast
2:06 PM 17.6 °F - 17.6 °F 100% 29.55 in - North - - N/A   Overcast
2:48 PM 17.6 °F - 17.6 °F 100% 29.57 in - North - - N/A   Overcast
3:57 PM 15.8 °F -7.0 °F 15.8 °F 100% 29.58 in - SW 41.4 mph 52.9 mph 0.01 in   Overcast